{"data":{"norad_id":55392,"intl_designator":"2023-014B","name":"STARLINK-5085","alt_names":[],"object_type":"PAYLOAD","status":"ACTIVE","operator":null,"country":"US","launch_date":"2023-01-31","launch_site_code":"AFWTR","launch_vehicle":null,"mission":null,"orbit_class":"UNKNOWN","rcs_meters":null,"size_class":null,"mass_kg":null,"dimensions":null,"purposes":["comms"],"wikipedia_slug":null,"has_3d_model":false,"image_url":null,"decayed_at":null,"tle_current":{"epoch":"2026-09-20T22:00:03.000096Z","epoch_age_seconds":60680,"freshness":"FRESH","line1":"1 55392U 23014B   26263.91670139  .00117208  00000+0  82274-2 0  9992","line2":"2 55392  69.9996 272.0609 0000609 291.0607 146.8010 15.04481319  5764","mean_motion":15.04481319,"eccentricity":6.09e-5,"inclination_deg":69.9996,"raan_deg":272.0609,"arg_perigee_deg":291.0607,"mean_anomaly_deg":146.801,"bstar":0.0082274,"rev_number":576,"period_min":95.714049873158,"perigee_km":552.67617528149,"apogee_km":553.52039973951,"semimajor_km":6931.2352875105,"source":"CELESTRAK","updated_at":"2026-09-21T09:00:33.213205Z"}}}